Hourly Data Report for October 01, 2017

All times are specified in Local Standard Time (LST). Add 1 hour to adjust for Daylight Saving Time where and when it is observed.

AGASSIZ RCS
BRITISH COLUMBIA

49°14'35.000" N
121°45'37.000" W
19.30 m
1100119
71113
WZA

Download Data

Hourly Data (October 2017)
Hourly Data Report for October 1, 2017
Temp Definition
°C
Dew Point Temp Definition
°C
Rel Hum Definition
%
Wind Dir Definition
10's deg

Wind Spd Definition
km/h
Visibility Definition
km
Stn Press Definition
kPa
Hmdx Definition


Wind Chill Definition


Weather Definition


TIME
00:00 10.2 9.7 97 6 1   101.65     LegendNANA
01:00 10.0 9.5 97 2 2   101.64     LegendNANA
02:00 9.5 9.0 97 0 1   101.64     LegendNANA
03:00 9.6 9.2 97 0 1   101.65     LegendNANA
04:00 9.8 9.4 97 36 2   101.68     LegendNANA
05:00 9.9 9.5 97   0   101.67     LegendNANA
06:00 10.0 9.6 97 8 2   101.71     LegendNANA
07:00 10.2 9.8 97   0   101.76     LegendNANA
08:00 10.7 10.0 96 0 1   101.78     LegendNANA
09:00 11.6 9.8 89 8 2   101.79     LegendNANA
10:00 11.7 9.8 88 11 1   101.81     LegendNANA
11:00 13.7 9.6 76 30 2   101.78     LegendNANA
12:00 14.4 9.3 71 14 6   101.77     LegendNANA
13:00 15.4 8.6 64 18 3   101.74     LegendNANA
14:00 16.6 8.1 57 26 5   101.72     LegendNANA
15:00 14.0 10.6 80 2 3   101.74     LegendNANA
16:00 15.9 7.9 59 25 5   101.71     LegendNANA
17:00 14.1 8.0 67 16 5   101.75     LegendNANA
18:00 11.0 8.9 87 4 4   101.81     LegendNANA
19:00 9.1 7.8 92 31 3   101.84     LegendNANA
20:00 11.0 7.2 78 4 22   101.85     LegendNANA
21:00 11.3 7.1 76 4 21   101.84     LegendNANA
22:00 9.0 7.5 90 33 5   101.87     LegendNANA
23:00 10.8 6.8 76 4 25   101.83     LegendNANA

Notes on Data Quality.

Legend

  • E = Estimated
  • M = Missing
  • NA = Not Available
  • ‡ = Partner data that is not subject to review by the National Climate Archives
Date modified: